Tracking 19212 objects as of 17-Jul-2018
HD Live streaming from Space Station
objects crossing your sky now

FENGYUN 1C DEB

Track FENGYUN 1C DEB now!
10-day predictions


NORAD ID: 36214
Int'l Code: 1999-025DUP
Perigee: 785.9 km
Apogee: 871.9 km
Inclination: 99.0 °
Period: 101.3 minutes
Semi major axis: 7199 km
RCS: 0.0078 m2 (small)
Launch date: May 10, 1999
Source: People's Republic of China (PRC)
Launch site: Taiyaun Space Center, China (TSC)

Note: This is SATELLITE DEBRIS
aabbcc
Your satellite tracking list
Your tracking list is empty




NASA's NSSDC Master Catalog

Two Line Element Set (TLE):
1 36214U 99025DUP 18181.51164175  .00001188  00000-0  55882-3 0  9999
2 36214  99.0481 274.4662 0059751 228.6669 130.9357 14.21055394538194
Source of the keplerian elements: AFSPC